Simultaneous Nadir Overpasses (SNOs) Predictions

Prediction of SNOs between GOES-15 and METOP-C Satellite Orbit:

Table of predicted SNOs for the next 14.0 days since TLE Epoch: 11/2/2022
Index Date Time (GOES-15) GOES-15 Lat,Lon METOP-C Lat,Lon Distance(km) Time Diff (sec)
1 11/02/2022 06:16:17 0.25,-128.42 -0.37,-131.13 308.80 80
2 11/03/2022 05:52:58 0.25,-128.41 0.77,-126.14 259.49 80
3 11/04/2022 18:11:50 -0.25,-128.41 0.27,-130.70 261.20 80
4 11/05/2022 17:53:52 -0.25,-128.40 -0.86,-125.71 307.69 80
5 11/07/2022 06:12:52 0.25,-128.40 -0.19,-130.29 216.07 80
6 11/08/2022 05:49:34 0.24,-128.39 0.95,-125.31 351.92 80
7 11/09/2022 18:08:26 -0.24,-128.37 0.10,-129.86 170.20 80
8 11/10/2022 17:50:28 -0.24,-128.36 -1.04,-124.87 398.11 80
9 11/12/2022 06:09:28 0.23,-128.36 0.01,-129.47 125.80 80
10 11/13/2022 05:46:08 0.23,-128.34 1.10,-124.47 441.58 80
11 11/14/2022 18:05:01 -0.22,-128.30 -0.04,-129.02 82.20 80
12 11/15/2022 17:47:02 -0.22,-128.29 -1.19,-124.03 485.62 80
